Time,TemperatureF,DewpointF,PressureIn,WindDirection,WindDirectionDegrees,WindSpeedMPH,WindSpeedGustMPH,Humidity,HourlyPrecipIn,Conditions,Clouds,dailyrainin,SolarRadiationWatts/m^2,SoftwareType,DateUTC
2013-04-18 00:02:00,11.0,4.0,-100.00,NNW,334,11.0,17.0,70,0.00,,,0.00,0.700000,,2013-04-18 08:02:00,
2013-04-18 00:12:00,11.0,4.0,-100.00,NNW,334,11.0,17.0,70,0.00,,,0.00,0.700000,,2013-04-18 08:12:00,
2013-04-18 00:22:00,11.0,4.0,-100.00,NNW,334,11.0,17.0,70,0.00,,,0.00,0.700000,,2013-04-18 08:22:00,
2013-04-18 00:32:00,11.0,4.0,-100.00,NNW,334,11.0,17.0,70,0.00,,,0.00,0.700000,,2013-04-18 08:32:00,
2013-04-18 00:42:00,11.0,4.0,-100.00,NNW,334,11.0,17.0,70,0.00,,,0.00,0.700000,,2013-04-18 08:42:00,
2013-04-18 01:02:00,11.0,3.0,-100.00,NW,326,13.0,18.0,70,0.00,,,0.00,0.700000,,2013-04-18 09:02:00,
2013-04-18 01:12:00,11.0,3.0,-100.00,NW,326,13.0,18.0,70,0.00,,,0.00,0.700000,,2013-04-18 09:12:00,
2013-04-18 01:22:00,11.0,3.0,-100.00,NW,326,13.0,18.0,70,0.00,,,0.00,0.700000,,2013-04-18 09:22:00,
2013-04-18 01:32:00,11.0,3.0,-100.00,NW,326,13.0,18.0,70,0.00,,,0.00,0.700000,,2013-04-18 09:32:00,
2013-04-18 01:42:00,11.0,3.0,-100.00,NW,326,13.0,18.0,70,0.00,,,0.00,0.700000,,2013-04-18 09:42:00,
2013-04-18 02:03:00,11.0,3.0,-100.00,NW,314,13.0,22.0,70,0.00,,,0.00,0.700000,,2013-04-18 10:03:00,
2013-04-18 02:12:00,11.0,3.0,-100.00,NW,314,13.0,22.0,70,0.00,,,0.00,0.700000,,2013-04-18 10:12:00,
2013-04-18 02:22:00,11.0,3.0,-100.00,NW,314,13.0,22.0,70,0.00,,,0.00,0.700000,,2013-04-18 10:22:00,
2013-04-18 02:32:00,11.0,3.0,-100.00,NW,314,13.0,22.0,70,0.00,,,0.00,0.700000,,2013-04-18 10:32:00,
2013-04-18 02:42:00,11.0,3.0,-100.00,NW,314,13.0,22.0,70,0.00,,,0.00,0.700000,,2013-04-18 10:42:00,
2013-04-18 03:02:00,11.0,4.0,-100.00,NW,315,10.0,17.0,72,0.00,,,0.00,0.700000,,2013-04-18 11:02:00,
2013-04-18 03:12:00,11.0,4.0,-100.00,NW,315,10.0,17.0,72,0.00,,,0.00,0.700000,,2013-04-18 11:12:00,
2013-04-18 03:22:00,11.0,4.0,-100.00,NW,315,10.0,17.0,72,0.00,,,0.00,0.700000,,2013-04-18 11:22:00,
2013-04-18 03:32:00,11.0,4.0,-100.00,NW,315,10.0,17.0,72,0.00,,,0.00,0.700000,,2013-04-18 11:32:00,
2013-04-18 03:42:00,11.0,4.0,-100.00,NW,315,10.0,17.0,72,0.00,,,0.00,0.700000,,2013-04-18 11:42:00,
2013-04-18 04:02:00,11.0,3.0,-100.00,NW,308,10.0,15.0,71,0.00,,,0.00,0.700000,,2013-04-18 12:02:00,
2013-04-18 04:12:00,11.0,3.0,-100.00,NW,308,10.0,15.0,71,0.00,,,0.00,0.700000,,2013-04-18 12:12:00,
2013-04-18 04:22:00,11.0,3.0,-100.00,NW,308,10.0,15.0,71,0.00,,,0.00,0.700000,,2013-04-18 12:22:00,
2013-04-18 04:32:00,11.0,3.0,-100.00,NW,308,10.0,15.0,71,0.00,,,0.00,0.700000,,2013-04-18 12:32:00,
2013-04-18 04:42:00,11.0,3.0,-100.00,NW,308,10.0,15.0,71,0.00,,,0.00,0.700000,,2013-04-18 12:42:00,
2013-04-18 05:02:00,12.0,4.0,-100.00,NW,316,12.0,13.0,72,0.00,,,0.00,0.700000,,2013-04-18 13:02:00,
2013-04-18 05:12:00,12.0,4.0,-100.00,NW,316,12.0,13.0,72,0.00,,,0.00,0.700000,,2013-04-18 13:12:00,
2013-04-18 05:22:00,12.0,4.0,-100.00,NW,316,12.0,13.0,72,0.00,,,0.00,0.700000,,2013-04-18 13:22:00,
2013-04-18 05:32:00,12.0,4.0,-100.00,NW,316,12.0,13.0,72,0.00,,,0.00,0.700000,,2013-04-18 13:32:00,
2013-04-18 05:42:00,12.0,4.0,-100.00,NW,316,12.0,13.0,72,0.00,,,0.00,0.700000,,2013-04-18 13:42:00,
2013-04-18 06:02:00,13.0,3.0,-100.00,NW,314,10.0,13.0,65,0.00,,,0.00,0.700000,,2013-04-18 14:02:00,
2013-04-18 06:12:00,13.0,3.0,-100.00,NW,314,10.0,13.0,65,0.00,,,0.00,0.700000,,2013-04-18 14:12:00,
2013-04-18 06:22:00,13.0,3.0,-100.00,NW,314,10.0,13.0,65,0.00,,,0.00,0.700000,,2013-04-18 14:22:00,
2013-04-18 06:32:00,13.0,3.0,-100.00,NW,314,10.0,13.0,65,0.00,,,0.00,0.700000,,2013-04-18 14:32:00,
2013-04-18 06:42:00,13.0,3.0,-100.00,NW,314,10.0,13.0,65,0.00,,,0.00,0.700000,,2013-04-18 14:42:00,
2013-04-18 07:02:00,12.0,1.0,-100.00,NNW,342,5.0,14.0,62,0.00,,,0.00,3.200000,,2013-04-18 15:02:00,
2013-04-18 07:12:00,12.0,1.0,-100.00,NNW,342,5.0,14.0,62,0.00,,,0.00,3.200000,,2013-04-18 15:12:00,
2013-04-18 07:22:00,12.0,1.0,-100.00,NNW,342,5.0,14.0,62,0.00,,,0.00,3.200000,,2013-04-18 15:22:00,
2013-04-18 07:33:00,12.0,1.0,-100.00,NNW,342,5.0,14.0,62,0.00,,,0.00,3.200000,,2013-04-18 15:33:00,
2013-04-18 07:42:00,12.0,1.0,-100.00,NNW,342,5.0,14.0,62,0.00,,,0.00,3.200000,,2013-04-18 15:42:00,
2013-04-18 08:03:00,14.0,2.0,-100.00,NW,308,10.0,10.0,59,0.00,,,0.00,68.400002,,2013-04-18 16:03:00,
2013-04-18 08:13:00,14.0,2.0,-100.00,NW,308,10.0,10.0,59,0.00,,,0.00,68.400002,,2013-04-18 16:13:00,
2013-04-18 08:22:00,14.0,2.0,-100.00,NW,308,10.0,10.0,59,0.00,,,0.00,68.400002,,2013-04-18 16:22:00,
2013-04-18 08:33:00,14.0,2.0,-100.00,NW,308,10.0,10.0,59,0.00,,,0.00,68.400002,,2013-04-18 16:33:00,
2013-04-18 08:42:00,14.0,2.0,-100.00,NW,308,10.0,10.0,59,0.00,,,0.00,68.400002,,2013-04-18 16:42:00,
2013-04-18 09:02:00,17.0,2.0,-100.00,NW,312,11.0,16.0,51,0.00,,,0.00,202.100006,,2013-04-18 17:02:00,
2013-04-18 09:12:00,17.0,2.0,-100.00,NW,312,11.0,16.0,51,0.00,,,0.00,202.100006,,2013-04-18 17:12:00,
2013-04-18 09:22:00,17.0,2.0,-100.00,NW,312,11.0,16.0,51,0.00,,,0.00,202.100006,,2013-04-18 17:22:00,
2013-04-18 09:33:00,17.0,2.0,-100.00,NW,312,11.0,16.0,51,0.00,,,0.00,202.100006,,2013-04-18 17:33:00,
2013-04-18 09:42:00,17.0,2.0,-100.00,NW,312,11.0,16.0,51,0.00,,,0.00,202.100006,,2013-04-18 17:42:00,
2013-04-18 10:02:00,18.0,3.0,-100.00,WNW,295,6.0,14.0,50,0.00,,,0.00,339.200012,,2013-04-18 18:02:00,
2013-04-18 10:12:00,18.0,3.0,-100.00,WNW,295,6.0,14.0,50,0.00,,,0.00,339.200012,,2013-04-18 18:12:00,
2013-04-18 10:22:00,18.0,3.0,-100.00,WNW,295,6.0,14.0,50,0.00,,,0.00,339.200012,,2013-04-18 18:22:00,
2013-04-18 10:32:00,18.0,3.0,-100.00,WNW,295,6.0,14.0,50,0.00,,,0.00,339.200012,,2013-04-18 18:32:00,
2013-04-18 10:42:00,18.0,3.0,-100.00,WNW,295,6.0,14.0,50,0.00,,,0.00,339.200012,,2013-04-18 18:42:00,
2013-04-18 11:02:00,18.0,3.0,-100.00,NW,307,10.0,13.0,51,0.00,,,0.00,471.399994,,2013-04-18 19:02:00,
2013-04-18 11:12:00,18.0,3.0,-100.00,NW,307,10.0,13.0,51,0.00,,,0.00,471.399994,,2013-04-18 19:12:00,
2013-04-18 11:22:00,18.0,3.0,-100.00,NW,307,10.0,13.0,51,0.00,,,0.00,471.399994,,2013-04-18 19:22:00,
2013-04-18 11:32:00,18.0,3.0,-100.00,NW,307,10.0,13.0,51,0.00,,,0.00,471.399994,,2013-04-18 19:32:00,
2013-04-18 11:42:00,18.0,3.0,-100.00,NW,307,10.0,13.0,51,0.00,,,0.00,471.399994,,2013-04-18 19:42:00,
2013-04-18 12:02:00,21.0,3.0,-100.00,WNW,301,7.0,13.0,45,0.00,,,0.00,582.900024,,2013-04-18 20:02:00,
2013-04-18 12:12:00,21.0,3.0,-100.00,WNW,301,7.0,13.0,45,0.00,,,0.00,582.900024,,2013-04-18 20:12:00,
2013-04-18 12:22:00,21.0,3.0,-100.00,WNW,301,7.0,13.0,45,0.00,,,0.00,582.900024,,2013-04-18 20:22:00,
2013-04-18 12:32:00,21.0,3.0,-100.00,WNW,301,7.0,13.0,45,0.00,,,0.00,582.900024,,2013-04-18 20:32:00,
2013-04-18 12:42:00,21.0,3.0,-100.00,WNW,301,7.0,13.0,45,0.00,,,0.00,582.900024,,2013-04-18 20:42:00,
2013-04-18 12:43:00,24.0,3.0,-100.00,WNW,282,5.0,11.0,40,0.00,,,-99.99,665.200012,,2013-04-18 20:43:00,
2013-04-18 13:02:00,24.0,3.0,-100.00,WNW,282,5.0,11.0,40,0.00,,,-99.99,665.200012,,2013-04-18 21:02:00,
2013-04-18 13:12:00,24.0,3.0,-100.00,WNW,282,5.0,11.0,40,0.00,,,-99.99,665.200012,,2013-04-18 21:12:00,
2013-04-18 13:22:00,24.0,3.0,-100.00,WNW,282,5.0,11.0,40,0.00,,,-99.99,665.200012,,2013-04-18 21:22:00,
2013-04-18 13:32:00,24.0,3.0,-100.00,WNW,282,5.0,11.0,40,0.00,,,-99.99,665.200012,,2013-04-18 21:32:00,
2013-04-18 14:02:00,23.0,2.0,-100.00,NW,305,7.0,11.0,39,0.00,,,0.00,712.099976,,2013-04-18 22:02:00,
2013-04-18 14:12:00,23.0,2.0,-100.00,NW,305,7.0,11.0,39,0.00,,,0.00,712.099976,,2013-04-18 22:12:00,
2013-04-18 14:22:00,23.0,2.0,-100.00,NW,305,7.0,11.0,39,0.00,,,0.00,712.099976,,2013-04-18 22:22:00,
2013-04-18 14:32:00,23.0,2.0,-100.00,NW,305,7.0,11.0,39,0.00,,,0.00,712.099976,,2013-04-18 22:32:00,
2013-04-18 14:42:00,23.0,2.0,-100.00,NW,305,7.0,11.0,39,0.00,,,0.00,712.099976,,2013-04-18 22:42:00,
2013-04-18 15:03:00,23.0,4.0,-100.00,WNW,293,8.0,12.0,44,0.00,,,0.00,719.099976,,2013-04-18 23:03:00,
2013-04-18 15:11:00,23.0,4.0,-100.00,WNW,293,8.0,12.0,44,0.00,,,0.00,719.099976,,2013-04-18 23:11:00,
2013-04-18 15:21:00,23.0,4.0,-100.00,WNW,293,8.0,12.0,44,0.00,,,0.00,719.099976,,2013-04-18 23:21:00,
2013-04-18 15:32:00,23.0,4.0,-100.00,WNW,293,8.0,12.0,44,0.00,,,0.00,719.099976,,2013-04-18 23:32:00,
2013-04-18 15:42:00,23.0,4.0,-100.00,WNW,293,8.0,12.0,44,0.00,,,0.00,719.099976,,2013-04-18 23:42:00,
2013-04-18 16:01:00,20.0,10.0,-100.00,WNW,292,10.0,10.0,65,0.00,,,0.00,687.200012,,2013-04-19 00:01:00,
2013-04-18 16:12:00,20.0,10.0,-100.00,WNW,292,10.0,10.0,65,0.00,,,0.00,687.200012,,2013-04-19 00:12:00,
2013-04-18 16:21:00,20.0,10.0,-100.00,WNW,292,10.0,10.0,65,0.00,,,0.00,687.200012,,2013-04-19 00:21:00,
2013-04-18 16:32:00,20.0,10.0,-100.00,WNW,292,10.0,10.0,65,0.00,,,0.00,687.200012,,2013-04-19 00:32:00,
2013-04-18 16:42:00,20.0,10.0,-100.00,WNW,292,10.0,10.0,65,0.00,,,0.00,687.200012,,2013-04-19 00:42:00,
2013-04-18 17:01:00,22.0,9.0,-100.00,WNW,303,6.0,12.0,56,0.00,,,0.00,617.099976,,2013-04-19 01:01:00,
2013-04-18 17:11:00,22.0,9.0,-100.00,WNW,303,6.0,12.0,56,0.00,,,0.00,617.099976,,2013-04-19 01:11:00,
2013-04-18 17:21:00,22.0,9.0,-100.00,WNW,303,6.0,12.0,56,0.00,,,0.00,617.099976,,2013-04-19 01:21:00,
2013-04-18 17:31:00,22.0,9.0,-100.00,WNW,303,6.0,12.0,56,0.00,,,0.00,617.099976,,2013-04-19 01:31:00,
2013-04-18 17:42:00,22.0,9.0,-100.00,WNW,303,6.0,12.0,56,0.00,,,0.00,617.099976,,2013-04-19 01:42:00,
2013-04-18 18:01:00,23.0,7.0,-100.00,SSW,213,4.0,10.0,50,0.00,,,0.00,517.099976,,2013-04-19 02:01:00,
2013-04-18 18:11:00,23.0,7.0,-100.00,SSW,213,4.0,10.0,50,0.00,,,0.00,517.099976,,2013-04-19 02:11:00,
2013-04-18 18:21:00,23.0,7.0,-100.00,SSW,213,4.0,10.0,50,0.00,,,0.00,517.099976,,2013-04-19 02:21:00,
2013-04-18 18:32:00,23.0,7.0,-100.00,SSW,213,4.0,10.0,50,0.00,,,0.00,517.099976,,2013-04-19 02:32:00,
2013-04-18 18:42:00,23.0,7.0,-100.00,SSW,213,4.0,10.0,50,0.00,,,0.00,517.099976,,2013-04-19 02:42:00,
2013-04-18 18:43:00,21.0,6.0,-100.00,WNW,301,6.0,12.0,52,0.00,,,0.00,393.799988,,2013-04-19 02:43:00,
2013-04-18 19:01:00,21.0,6.0,-100.00,WNW,301,6.0,12.0,52,0.00,,,0.00,393.799988,,2013-04-19 03:01:00,
2013-04-18 19:11:00,21.0,6.0,-100.00,WNW,301,6.0,12.0,52,0.00,,,0.00,393.799988,,2013-04-19 03:11:00,
2013-04-18 19:21:00,21.0,6.0,-100.00,WNW,301,6.0,12.0,52,0.00,,,0.00,393.799988,,2013-04-19 03:21:00,
2013-04-18 19:32:00,21.0,6.0,-100.00,WNW,301,6.0,12.0,52,0.00,,,0.00,393.799988,,2013-04-19 03:32:00,
2013-04-18 19:43:00,21.0,6.0,-100.00,SW,222,3.0,15.0,52,0.00,,,0.00,257.799988,,2013-04-19 03:43:00,
2013-04-18 20:03:00,21.0,6.0,-100.00,SW,222,3.0,15.0,52,0.00,,,0.00,257.799988,,2013-04-19 04:03:00,
2013-04-18 20:13:00,21.0,6.0,-100.00,SW,222,3.0,15.0,52,0.00,,,0.00,257.799988,,2013-04-19 04:13:00,
2013-04-18 20:23:00,21.0,6.0,-100.00,SW,222,3.0,15.0,52,0.00,,,0.00,257.799988,,2013-04-19 04:23:00,
2013-04-18 20:32:00,21.0,6.0,-100.00,SW,222,3.0,15.0,52,0.00,,,0.00,257.799988,,2013-04-19 04:32:00,
2013-04-18 21:03:00,17.0,5.0,-100.00,WNW,289,7.0,10.0,59,0.00,,,0.00,125.300003,,2013-04-19 05:03:00,
2013-04-18 21:11:00,17.0,5.0,-100.00,WNW,289,7.0,10.0,59,0.00,,,0.00,125.300003,,2013-04-19 05:11:00,
2013-04-18 21:22:00,17.0,5.0,-100.00,WNW,289,7.0,10.0,59,0.00,,,0.00,125.300003,,2013-04-19 05:22:00,
2013-04-18 21:32:00,17.0,5.0,-100.00,WNW,289,7.0,10.0,59,0.00,,,0.00,125.300003,,2013-04-19 05:32:00,
2013-04-18 21:42:00,17.0,5.0,-100.00,WNW,289,7.0,10.0,59,0.00,,,0.00,125.300003,,2013-04-19 05:42:00,
2013-04-18 22:01:00,14.0,3.0,-100.00,WNW,298,14.0,14.0,63,0.00,,,0.00,19.799999,,2013-04-19 06:01:00,
2013-04-18 22:11:00,14.0,3.0,-100.00,WNW,298,14.0,14.0,63,0.00,,,0.00,19.799999,,2013-04-19 06:11:00,
2013-04-18 22:22:00,14.0,3.0,-100.00,WNW,298,14.0,14.0,63,0.00,,,0.00,19.799999,,2013-04-19 06:22:00,
2013-04-18 22:31:00,14.0,3.0,-100.00,WNW,298,14.0,14.0,63,0.00,,,0.00,19.799999,,2013-04-19 06:31:00,
2013-04-18 22:42:00,14.0,3.0,-100.00,WNW,298,14.0,14.0,63,0.00,,,0.00,19.799999,,2013-04-19 06:42:00,
2013-04-18 23:02:00,15.0,2.0,-100.00,WNW,303,12.0,16.0,57,0.00,,,0.00,0.900000,,2013-04-19 07:02:00,
2013-04-18 23:12:00,15.0,2.0,-100.00,WNW,303,12.0,16.0,57,0.00,,,0.00,0.900000,,2013-04-19 07:12:00,
2013-04-18 23:21:00,15.0,2.0,-100.00,WNW,303,12.0,16.0,57,0.00,,,0.00,0.900000,,2013-04-19 07:21:00,
2013-04-18 23:31:00,15.0,2.0,-100.00,WNW,303,12.0,16.0,57,0.00,,,0.00,0.900000,,2013-04-19 07:31:00,
2013-04-18 23:42:00,15.0,2.0,-100.00,WNW,303,12.0,16.0,57,0.00,,,0.00,0.900000,,2013-04-19 07:42:00,